Weather in Kochko-Pozharki

Russia / Nizhny Novgorod Oblast'     55°29′44″N   45°29′18″E
temp.,
°C
wind,
m/s
gust,
m/s
humid.,
%
clouds,
%
prec.,
mm/h
press.,
hPa
HPBL,
m
6 march, sat
sat600:00−11w499435 0.0 1010169
03:00−12wnw489555 0.1 1013153
06:00−16wnw33914 0.0 101424
09:00−14w24892 0.0 1015123
12:00−10wsw34880 0.0 1015260
15:00−8wsw35912 0.0 1014370
18:00−12w239321 0.0 101421
21:00−14sw229729 0.0 101320
7 march, sun
sun700:00−14wsw239744 0.0 101224
03:00−15wsw339765 0.1 101229
06:00−15sw349648 0.0 101156
09:00−13ssw5109471 0.1 1009271
12:00−9ssw71388100 0.0 1005547
15:00−6ssw91493100 0.3 10011003
18:00−6ssw81494100 0.8 997857
21:00−5ssw81593100 1.8 993865
8 march, mon
mon800:00−6w91586100 0.9 991765
03:00−10wsw8178276 0.9 993594
06:00−11wsw714890 0.0 995347
09:00−10sw6129226 0.0 995357
12:00−7wsw6991100 0.4 995729
15:00−6w598483 0.5 996905
18:00−10w468627 0.0 999102
21:00−13w479425 0.0 1002119
9 march, tue
tue900:00−13wnw469690 0.1 1003139
03:00−16wnw479682 0.1 1006142
06:00−19wnw369871 0.0 100995
09:00−17wnw479578 0.1 1010242
12:00−15wnw479168 0.0 1012387
15:00−14wnw478977 0.0 1013519
18:00−18wnw349697 0.0 101458
21:00−21nw469657 0.0 101690
10 march, wed
wed1000:00−22wnw369888 0.0 101789
03:00−23nw369990 0.1 101896
06:00−25nw369894 0.0 1019119
09:00−24nw479795 0.1 1020255
12:00−21nw469391 0.0 1021337
15:00−19nw479094 0.0 1022571
18:00−22wnw4697100 0.0 1023104
21:00−25nw449894 0.0 102559